Home   Weather   Larvik   Past weeks

Flag for Norway Past Weather in Larvik, Norway — Yesterday and Last 2 Weeks

Now
30 °F

Sunny.


Feels Like: 27 °F
Forecast: 28 / 34 °F
Wind: 3 mph from North

Location: Torp

Current Time: Jan 16, 2017 at 4:05:16 pm

Latest Report: Jan 16, 2017 at 3:20 pm


Visibility: 10 mi

Pressure: 30.36 "Hg

Humidity: 55%

Dew Point: 16 °F

Location of LarvikLocation

Past Weather in Larvik — Graph

°F

Larvik Temperature Yesterday

Maximum temperature yesterday: 32 °F (at 1:20 pm)
Minimum temperature yesterday: 21 °F (at 8:50 am)
Average temperature yesterday: 26 °F

High & Low Weather Summary for the Past Weeks

 TemperatureHumidityPressure
High43 °F (Jan 10, 11:50 pm)100% (Jan 3, 1:50 pm)30.66 "Hg (Jan 3, 1:50 pm)
Low12 °F (Jan 5, 7:20 am)40% (Jan 4, 11:20 am)28.50 "Hg (Jan 11, 1:50 pm)
Average31 °F77%29.74 "Hg
* Reported Jan 1 2:20 pm — Jan 16 2:50 pm, Larvik, Weather by CustomWeather, © 2017

Note: Actual official high and low records may vary slightly from our data, if they occured in-between our weather recording intervals... More about our weather records

Advertising

Larvik Weather History for the Previous 24 Hours

Scroll right to see more
 ConditionsComfort  
Time TempWeatherWind HumidityBarometerVisibility
2:50 pm
Mon, Jan 16
32 °FSunny.5 mph51%30.36 "Hg10 mi
2:20 pm32 °FSunny.5 mph51%30.36 "Hg10 mi
1:50 pm32 °FSunny.5 mph51%30.36 "Hg10 mi
1:20 pm32 °FPassing clouds.7 mph47%30.36 "HgN/A
12:50 pm32 °FSunny.6 mph47%30.36 "Hg10 mi
12:20 pm30 °FSunny.7 mph51%30.36 "Hg10 mi
11:50 am27 °FSunny.6 mph59%30.36 "Hg10 mi
11:20 am27 °FSunny.6 mph59%30.36 "Hg10 mi
10:50 am27 °FSunny.5 mph59%30.33 "Hg10 mi
10:20 am27 °FSunny.5 mph54%30.33 "Hg10 mi
9:50 am27 °FSunny.6 mph50%30.33 "Hg10 mi
9:20 am27 °FPassing clouds.6 mph46%30.33 "HgN/A
8:50 am27 °FClear.6 mph46%30.30 "Hg10 mi
8:20 am27 °FOvercast.6 mph46%30.30 "HgN/A
7:50 am25 °FClear.7 mph54%30.30 "Hg10 mi
7:20 am25 °FOvercast.6 mph54%30.27 "HgN/A
6:50 am25 °FOvercast.7 mph54%30.27 "HgN/A
6:20 am23 °FPassing clouds.7 mph63%30.27 "HgN/A
5:50 am19 °FClear.6 mph68%30.24 "Hg10 mi
5:20 am21 °FCold.6 mph58%30.27 "HgN/A
4:50 am19 °FCold.5 mph63%30.27 "HgN/A
4:20 am19 °FCold.3 mph63%30.27 "HgN/A
3:50 am19 °FCold.3 mph63%30.27 "HgN/A
3:20 am21 °FCold.5 mph63%30.24 "HgN/A
2:50 am19 °FCold.6 mph68%30.24 "HgN/A
2:20 am19 °FCold.5 mph68%30.24 "HgN/A
1:20 am19 °FCold.3 mph68%30.24 "HgN/A
12:50 am18 °FCold.3 mph68%30.24 "HgN/A
12:20 am19 °FCold.3 mph68%30.21 "HgN/A
11:50 pm
Sun, Jan 15
21 °FCold.3 mph58%30.21 "HgN/A
11:20 pm23 °FCold.3 mph54%30.21 "HgN/A
10:50 pm23 °FPassing clouds.6 mph54%30.18 "HgN/A
10:20 pm25 °FClear.6 mph50%30.18 "Hg10 mi
9:50 pm23 °FClear.6 mph58%30.18 "Hg10 mi
9:20 pm23 °FClear.6 mph58%30.18 "Hg10 mi
8:50 pm23 °FClear.6 mph58%30.18 "Hg10 mi
8:20 pm23 °FClear.8 mph58%30.15 "Hg10 mi
7:50 pm25 °FClear.5 mph54%30.15 "Hg10 mi
7:20 pm25 °FClear.7 mph59%30.15 "Hg10 mi
6:50 pm25 °FClear.6 mph54%30.15 "Hg10 mi
6:20 pm25 °FClear.8 mph59%30.15 "Hg10 mi
5:50 pm27 °FClear.7 mph54%30.12 "Hg10 mi
5:20 pm27 °FClear.5 mph54%30.12 "Hg10 mi
4:50 pm27 °FClear.3 mph59%30.09 "Hg10 mi
4:20 pm28 °FClear.2 mph55%30.09 "Hg10 mi
Weather by CustomWeather, © 2017

See weather overviewHow to use our weather pages